Location: Santa Cristina
(46.5667°N, 11.7167°E)
Time: 18:21:50
(UTC+00:00)

GP-B - Pass Details

Date: 21 April 2021
Orbit: 631 x 635 km, 89.8° (Epoch: 12 May)

Event Time Altitude Azimuth Distance (km) Brightness Sun altitude
Rises 03:18:39 0° 0° (N) 2,939 7.0 -9.7°
Reaches altitude 10° 03:20:52 10° 360° (N) 2,025 6.1 -9.4°
Maximum altitude 03:25:20 81° 273° (W) 645 3.1 -8.7°
Drops below altitude 10° 03:29:44 10° 187° (S) 2,007 5.4 -8.1°
Sets 03:31:57 0° 186° (S) 2,909 6.2 -7.7°
